www.pogodaiklimat.ru

Погода и климат >> Архив погоды >> Россия >> Адыгея >> Майкоп


ПОГОДА в Майкопе

АРХИВ ПОГОДЫ в Майкопе

Время (UTC), дата Ветер
(напр.,м/с)
 
Видим.   Явления Облачность Т
(С)
Тd
(С)
f
(%)
Тe
(С)
Тes
(С)
Комфортность P
(гПа)
Po
(гПа)
Тmin
(С)
Tmax
(С)
R
(мм)
R24
(мм)
S
(см)
06 11.07 СВ 1 20 км {ливн. осадки} 10/6 1000 м
[Sc Ac und]
+20.2 +14.1 68 +24 +25 комфорт 1005.2 980.1
09 11.07 З 2 10 км слаб. ливневой дождь 10/8 1000 м
[Cb cap Ac und]
+20.8 +13.6 63 +24 +25 комфорт 1005.6 980.6
12 11.07 С 2 20 км {ливн. осадки} 10/6 1000 м
[Sc Ac und]
+23.0 +12.2 51 +26 +27 жарко 1005.5 980.6
15 11.07 С 4 20 км 10/4 1000 м
[Sc Ac trans Ci sp]
+21.8 +13.2 58 +24 +25 комфорт 1005.5 980.5 +23.6 0.1
18 11.07 С 2 20 км 10/6 1000 м
[Sc Ac und]
+18.5 +13.7 74 +20 +20 прохладно 1006.3 981.0
21 11.07 СВ 3 20 км 10/6 1000 м
[Sc Ac und]
+17.7 +13.9 78 +18 +18 прохладно 1005.4 980.0
00 12.07 С 3 4000 м ливневой дождь 10/8 600 м
[Cb cap Ac und]
+14.9 +14.8 99 +14 +14 прохладно 1006.1 980.5
03 12.07 СЗ 1 10 км слаб. ливневой дождь 10/8 300 м
[Cb cap Ac und]
+14.9 +14.8 99 +15 +15 холодно 1007.3 981.7 +14.8 23
06 12.07 СЗ 1 10 км в посл. час ливневой дождь 10/8 600 м
[Cb cap Ac und]
+15.3 +15.2 99 +16 +16 очень
холодно
1008.3 982.8
09 12.07 С 2 20 км 10/6 600 м
[Sc diur, vesp Ac und]
+17.0 +14.5 85 +17 +20 очень
холодно
1009.5 984.0
12 12.07 СВ 1 20 км 8/5 1000 м
[Sc Ac As]
+22.8 +11.7 50 +25 +30 комфорт 1008.8 983.8
15 12.07 СВ 1 20 км 6/3 1000 м
[Sc Ac As Ci sp]
+22.9 +12.1 51 +26 +27 жарко 1008.9 983.9 +23.6 3
18 12.07 штиль 0 20 км 6/1 1000 м
[Sc Ac As Ci sp]
+15.7 +13.7 88 +15 +15 очень
холодно
1010.1 984.5
21 12.07 ЮВ 1 20 км 9/3 1000 м
[Sc Ac As]
+16.3 +14.1 87 +17 +17 прохладно 1009.8 984.2
00 13.07 ЮВ 2 20 км 9/4 1000 м
[Sc Ac As]
+15.7 +13.6 87 +16 +16 прохладно 1009.0 983.4
03 13.07 штиль 0 20 км 9/5 1000 м
[Sc Ac As]
+16.4 +14.4 88 +16 +17 холодно 1009.5 983.9 +14.4
06 13.07 Ю 1 20 км 8/5 1000 м
[Sc Ac trans]
+21.8 +12.7 56 +24 +28 комфорт 1009.6 984.5
09 13.07 З 3 20 км 8/3 1000 м
[Cu med, cong Ac trans]
+22.3 +13.5 57 +25 +31 комфорт 1009.4 984.4
12 13.07 З 3 20 км {ливн. осадки} 8/4 1000 м
[Cu med, cong Ac trans Ci sp]
+23.9 +13.5 52 +26 +30 жарко 1009.6 984.7
15 13.07 З 3 20 км 3/3 1000 м
[Sc Ac trans]
+21.3 +12.7 58 +24 +25 комфорт 1010.8 985.6 +25.1 0.0
18 13.07 штиль 0 20 км 3/3 1000 м
[Sc]
+14.9 +12.7 87 +15 +15 очень
холодно
1012.3 986.6
21 13.07 Ю 2 20 км ясно +15.5 +13.1 86 +15 +15 холодно 1012.5 986.8
00 14.07 Ю 2 20 км ясно +14.0 +12.0 88 +13 +13 холодно 1012.0 986.2
03 14.07 ЮВ 2 20 км 8/0
[Ci sp]
+14.4 +11.7 84 +14 +15 очень
холодно
1011.9 986.1 +13.3
06 14.07 СВ 2 20 км ясно +21.9 +12.2 54 +24 +35 комфорт 1011.1 986.0
09 14.07 С 2 20 км 6/6 1000 м
[Cu hum]
+24.9 +10.4 40 +26 +33 жарко 1009.8 985.0
12 14.07 ЮЗ 2 20 км 6/6 1000 м
[Cu med, cong]
+27.0 +8.8 32 +27 +32 жарко 1008.2 983.6
15 14.07 СВ 2 20 км 9/4 1000 м
[Sc Ac trans Ci sp]
+25.6 +8.9 35 +26 +27 жарко 1007.8 983.0 +27.6
18 14.07 В 1 20 км 10/5 1000 м
[Sc Ac As]
+20.8 +11.6 56 +24 +24 комфорт 1008.2 983.1
21 14.07 В 1 20 км 8/0
[Ac trans Ci sp]
+17.2 +12.4 73 +18 +18 прохладно 1007.2 981.8
00 15.07 ЮВ 1 20 км 10/3 1000 м
[Sc Ac trans Ci sp]
+16.6 +13.0 79 +17 +17 по сезону 1005.6 980.5
03 15.07 СВ 2 20 км 3/0
[Ci sp]
+15.3 +12.2 82 +15 +16 холодно 1005.5 979.9 +12.9
06 15.07 В 3 20 км 10/3 1000 м
[Sc Ac trans Ci sp]
+21.1 +13.4 61 +23 +26 комфорт 1004.4 979.4
09 15.07 ЮВ 1 20 км 10/4 1000 м
[Cb cap Ac As]
+22.6 +14.4 60 +26 +30 жарко 1005.0 980.1
12 15.07 ЮЗ 1 10 км слаб. ливневой дождь 10/8 1000 м
[Cb cap Ac As]
+19.5 +17.8 90 +23 +24 комфорт 1005.2 980.1
15 15.07 штиль 0 10 км слаб. ливневой дождь 10/8 1000 м
[Cb cap Ac As]
+17.6 +17.4 99 +18 +18 очень
холодно
1005.8 980.5 +22.9 8
18 15.07 Ю 1 10 км {ливн. осадки} 3/3 1000 м
[Sc]
+16.1 +15.9 99 +17 +17 холодно 1006.5 981.1
21 15.07 Ю 1 10 км слаб. ливневой дождь 10/8 600 м
[Cb cap Ac As]
+16.6 +16.5 99 +17 +17 прохладно 1006.6 981.2
00 16.07 Ю 1 4000 м ливневой дождь 10/8 600 м
[Cb cap Ac As]
+16.2 +16.0 99 +17 +17 по сезону 1006.5 981.1
03 16.07 ЮВ 1 10 км в посл. час ливневой дождь 10/6 600 м
[Cb cap Ac As]
+16.1 +15.8 98 +17 +17 прохладно 1006.6 981.2 +15.3 12
06 16.07 ЮВ 1 20 км {ливн. осадки} 10/6 600 м
[Cb cap Ac und]
+18.6 +16.8 89 +21 +22 комфорт 1006.6 981.3
09 16.07 ЮЗ 2 20 км 8/4 1000 м
[Cb cap Ac trans Ci sp]
+23.0 +16.2 66 +28 +35 душно 1006.7 981.8
12 16.07 ЮЗ 4
{13}
20 км 8/4 1000 м
[Sc Ac trans]
+24.8 +14.0 51 +27 +30 жарко 1006.9 982.1
15 16.07 ЮЗ 4
{11}
20 км 3/3 1000 м
[Sc]
+23.7 +12.9 51 +26 +27 жарко 1008.5 983.6 +25.3 0.1
18 16.07 ЮЗ 2 20 км ясно +19.5 +13.4 68 +22 +22 комфорт 1010.6 985.3
21 16.07 Ю 1 20 км ясно +14.9 +12.7 87 +15 +15 холодно 1010.9 985.2
00 17.07 Ю 3 20 км ясно +15.4 +12.3 82 +15 +15 прохладно 1010.6 984.9
03 17.07 ЮВ 3 20 км ясно +15.6 +11.7 78 +15 +16 холодно 1010.6 985.0 +14.0
06 17.07 С 1 20 км 3/0
[Ci sp]
+23.9 +12.5 49 +26 +37 жарко 1009.4 984.5
09 17.07 СВ 2 20 км 3/0
[Ci sp]
+26.7 +12.0 40 +28 +45 жарко 1007.9 983.3
12 17.07 С 3 20 км 6/3 1000 м
[Cu med, cong Ci sp]
+29.0 +12.1 35 +30 +37 жарко 1006.8 982.4
15 17.07 С 2 20 км 8/3 1000 м
[Sc Ac trans]
+26.4 +12.6 42 +28 +29 жарко 1006.7 982.1 +29.1
18 17.07 В 1 20 км 9/5 1000 м
[Sc Ac trans]
+20.0 +14.3 70 +23 +23 комфорт 1007.0 981.8
21 17.07 СВ 1 20 км 9/0
[Ac trans]
+19.2 +16.0 82 +22 +22 комфорт 1006.3 981.2
00 18.07 ЮВ 1 20 км 9/0
[Ac trans]
+18.6 +14.7 78 +20 +20 тепло 1006.3 981.0
03 18.07 Ю 1 20 км 10/4 1000 м
[Sc Ac As]
+18.1 +15.4 84 +19 +20 прохладно 1006.7 981.4 +17.4

 

Местоположение метеостанции Майкоп (Адыгея, Россия): широта 44.62 долгота 40.08 высота над уровнем моря 216 м.

В архиве по умолчанию представлена погода в Майкопе за последнюю неделю. Архивные данные за месяц целиком и за предыдущие месяцы, начиная с января 2011 года, Вы можете получить, выбрав интересующий диапазон дат из раскрывающегося списка и нажав кнопку "Ввод!".


*Определитесь, кто Вы:
робот инопланетянин человек

Внимание! Время в таблицах - всемирное. Для получения местного времени необходимо прибавить поправку, которая равна 3 ч.

Смотрите также архив погоды в соседних городах и на ближайших метеорологических станциях:

Погода в Шунтуке (Адыгея, Россия) (17 км)
Погода в Белореченске (Краснодарский край, Россия) (20 км)
Погода в Дондуковской (Адыгея, Россия) (34 км)
Погода в Лабинске (Краснодарский край, Россия) (53 км)
Погода в Даховской (Адыгея, Россия) (53 км)
Погода в Гузерипле (Адыгея, Россия) (69 км)
Погода в Усть-Лабинске (Краснодарский край, Россия) (73 км)
Погода в Горном (Краснодарский край, Россия) (75 км)
Погода в Горячем Ключе (Краснодарский край, Россия) (78 км)
Погода в Псебае (Краснодарский край, Россия) (78 км)

Пояснения к столбцам:

Ветер - указаны скорость ветра в м/с - средняя за 10 мин, порывы в срок и между сроками (в фигурных скобках) и направление, откуда дует ветер: С - северный, СВ - северо-восточный, В - восточный, ЮВ - юго-восточный, Ю - южный, ЮЗ - юго-западный, З - западный, СЗ - северо-западный.
Видимость - горизонтальная дальность видимости в метрах или километрах. При видимости от 1 до 10 км при отсутствии осадков обычно наблюдается дымка, при ухудшении видимости до 1 км и менее - туман. В сухую погоду видимость может ухудшаться дымом, пылью или мглою.
Явления - указаны атмосферные явления, наблюдавшиеся в срок или в последний час перед сроком; фигурными скобками обозначены явления, наблюдавшиеся между сроками (за 1-3 часа до срока); квадратными скобками обозначены град или гололедные отложения с указанием их диаметра в мм.
Облачность - указаны через наклонную черту общая и нижняя облачность в баллах и высота нижней границы облаков в метрах; квадратными скобками обозначены формы облаков: Ci - перистые, Cs - перисто-слоистые, Cc - перисто-кучевые, Ac - высококучевые, As - высокослоистые, Sc - слоисто-кучевые, Ns - слоисто-дождевые, Cu - кучевые, Cb - кучево-дождевые. Подробнее классификацию облаков см. в Атласе облаков (PDF).
T - Температура воздуха - температура, измеренная на высоте 2 м над землей.
Td - Температура точки росы - температура, при понижении до которой содержащийся в воздухе водяной пар достигнет насыщения.
f - Относительная влажность воздуха - влажноcть воздуха, измеренная на высоте 2 м над землей.
Te - Эффективная температура - температура, которую ощущает одетый по сезону человек в тени. Характеристика душности погоды. При расчете учитывается влияние влажности воздуха и скорости ветра на теплоощущения человека.
Tes - Эффективная температура на солнце - температура, которую ощущает человек, с поправкой на солнечный нагрев. Характеристика знойности погоды. Зависит от высоты солнца над горизонтом, облачности и скорости ветра. Ночью, в пасмурную погоду, а также при ветре 12 м/с и более поправка равна нулю.
P - Атмосферное давление - приведенное к уровню моря атмосферное давление.
Po - Атмосферное давление - измеренное на уровне метеостанции атмосферное давление.
Tmin - Минимальная температура - минимум температуры воздуха на высоте 2 м над землей.
Tmax - Максимальная температура - максимум температуры воздуха на высоте 2 м над землей.
R - Количество осадков - Количество выпавших осадков за период времени, мм. При наведении курсора мыши на число - период времени, за который выпало указанное количество осадков.
R24 - Количество осадков - Количество выпавших осадков за 24 часа, мм.
S - Снежный покров - Высота снежного покрова, см. При наведении курсора мыши на число - состояние снежного покрова и степень покрытия местности в баллах.